[[{"header":{"parameterUnit":"m.s-1","parameterCategory":1,"la1":30.2991,"la2":30.254,"lo1":-89.0895,"lo2":-89.0444,"dy":0.0017,"dx":0.0017,"nx":28,"ny":28,"refTime":"2024-11-22T09:00:00:Z","depth":0,"parameterNumber":2,"parameterNumberName":"U-component_of_WINDS"},"data":[0,0,0,0,0,0,0,0,0,0,0,0,0,0,0,0,0,0,0,0,0,0,0,0,0,0,0,0,0,0,0,0,0,0,0,0,0,0,0,0,0,0,0,0,0,0,0,0,0,0,0,0,0,0,0,0,0,0,3.9902,3.9903,0,3.9973,3.9974,3.9975,3.9893,3.989,3.9887,3.9884,3.9956,3.9961,3.9965,0,0,0,0,0,0,0,0,0,0,0,0,0,3.9696,3.97,3.9902,3.9903,3.9904,3.9973,3.9974,3.9975,3.9894,3.989,3.9886,3.9883,3.9955,3.996,3.9966,0,0,0,0,0,0,0,0,0,0,0,0,0,3.9778,3.9702,3.9902,3.9872,3.987,3.9973,3.9974,3.9975,3.9894,3.989,3.9885,3.9881,3.9953,3.996,3.9967,4.0103,0,0,3.9989,3.9992,0,0,0,0,0,0,0,0,3.9774,3.9786,3.9875,3.9874,3.9872,3.992,3.9928,4.0018,3.9896,3.9885,3.9884,3.9879,3.9948,3.9955,3.9978,4.0106,4.0109,3.9989,3.9994,3.9997,3.9999,0,0,0,0,0,0,0,3.9768,3.9782,3.993,3.9877,3.9875,3.9855,3.9861,3.9944,3.9941,3.9886,3.988,3.9889,3.9946,3.9972,3.9979,4.011,3.9989,3.9995,4.0,4.0003,4.0355,4.0359,0,0,0,0,0,0,3.9766,3.9778,3.9928,3.9932,3.981,3.9862,3.9869,3.9909,3.994,3.994,3.9893,3.9885,3.9962,3.9971,3.9982,4.0144,3.9997,4.0003,4.0007,4.035,4.0356,4.0361,0,0,0,0,0,0,3.9762,3.978,3.9925,3.9854,3.9871,3.987,3.9916,3.9913,3.9938,3.9946,3.9945,3.992,3.9958,3.9972,4.0074,4.0145,4.0006,4.0013,4.0344,4.0351,4.0358,4.0469,0,0,0,0,0,0,3.9756,3.9779,3.9831,3.9856,3.9875,4.0016,3.992,3.9917,3.9951,3.9941,3.9971,3.9971,3.9956,4.0063,4.0081,4.0152,4.0019,4.0337,4.0347,4.0356,4.0459,4.0479,4.0497,0,0,0,0,0,3.9749,3.9859,3.9834,3.9852,3.994,4.0021,4.0032,4.0012,3.9957,4.0009,4.0014,3.997,4.0135,4.0075,4.0093,4.0168,4.0333,4.0344,4.0355,4.045,4.0475,4.0496,0,0,0,0,0,0,3.9842,3.9861,3.9834,3.9955,3.9987,4.0007,4.0072,4.0039,4.0086,4.0075,4.0048,4.0055,4.0164,4.0176,4.0109,4.0302,4.0225,4.024,4.029,4.0314,4.0333,4.0328,4.0025,0,0,0,0,0,3.9876,3.9941,3.9954,4.006,4.0077,4.0072,4.0106,4.0088,4.012,4.0133,4.0145,4.0178,4.0237,4.0276,4.033,4.046,4.0466,4.0521,4.054,4.0556,4.057,4.064,4.0665,4.0399,4.0398,4.0398,0,0,3.9948,3.9967,4.0009,4.0079,4.0101,4.0169,4.0084,4.0158,4.0208,4.0144,4.0242,4.0252,4.0287,4.0404,4.0455,4.0417,4.0644,4.057,4.0583,4.0588,4.0654,4.0679,4.0702,4.0406,4.0405,4.0404,0,0,4.0114,4.0134,4.0225,4.025,4.0285,4.0281,4.0303,4.0328,4.0333,4.043,4.0384,4.0443,4.0545,4.0571,4.0598,4.0776,4.0737,4.0794,4.0893,4.0962,4.0983,4.1002,4.1065,4.1088,4.0808,4.0808,4.0808,0,4.0199,4.0299,4.0275,4.0354,4.0386,4.0332,4.0424,4.0449,4.05,4.0524,4.048,4.0607,4.0626,4.0749,4.0793,4.0816,4.084,4.079,4.0982,4.1,4.1017,4.1078,4.1102,4.0815,4.0814,4.0813,4.0813,0,4.0402,4.0472,4.054,4.0592,4.0632,4.0717,4.0707,4.075,4.0729,4.073,4.083,4.0851,4.091,4.0937,4.0917,4.1058,4.1033,4.0986,4.0907,4.105,4.1106,4.1129,4.0824,4.0822,4.082,4.0818,0,0,4.0627,4.0666,4.0692,4.0715,4.0751,4.0804,4.0887,4.0944,4.0982,4.102,4.1088,4.1176,4.1134,4.1164,4.1147,4.1207,4.1347,4.1153,4.1153,4.1189,4.1504,4.1539,4.1566,4.1322,4.1326,4.133,4.1501,0,4.0794,4.0937,4.0919,4.1056,4.1121,4.1071,4.1143,4.1173,4.1176,4.1231,4.1234,4.1298,4.1236,4.1254,4.1312,4.1318,4.141,4.1305,4.1386,4.1389,4.1379,4.1596,4.1633,4.1794,4.1523,4.1527,4.153,0,4.1007,4.1053,4.1197,4.1224,4.125,4.1315,4.1367,4.142,4.1454,4.1452,4.1487,4.1459,4.1541,4.1462,4.1576,4.1505,4.1537,4.1545,4.155,4.1557,4.1468,4.1609,4.1845,4.1869,4.1564,4.1561,4.1559,0,4.1158,4.1256,4.1355,4.1376,4.141,4.1457,4.1473,4.1501,4.1537,4.1582,4.1606,4.166,4.169,4.1732,4.172,4.1663,4.1837,4.1756,4.1838,4.1839,4.1877,4.1875,4.2122,4.1897,4.1897,4.1896,4.1896,0,4.1346,4.1437,4.1423,4.1485,4.1584,4.1563,4.1662,4.1672,4.1698,4.176,4.172,4.1779,4.1758,4.1816,4.1807,4.1903,4.1917,4.1918,4.1914,4.1922,4.1922,4.1942,4.1931,4.1903,4.1901,4.19,4.1899,0,4.1532,4.1527,4.1631,4.1655,4.1663,4.1735,4.1755,4.1813,4.1813,4.1892,4.1909,4.191,4.1976,4.1968,4.2042,4.2035,4.2155,4.2138,4.2145,4.2141,4.2224,4.2216,4.2493,4.2528,4.2281,4.2283,4.2285,0,4.1653,4.1721,4.1752,4.1791,4.1811,4.1874,4.191,4.1892,4.1932,4.1975,4.2028,4.2091,4.214,4.2248,4.2255,4.2312,4.2296,4.2389,4.2304,4.231,4.2298,4.2294,4.2301,4.2406,4.2409,4.2411,4.2413,0,4.1868,4.1862,4.1917,4.1971,4.2017,4.2058,4.2096,4.213,4.2115,4.2163,4.223,4.2269,4.2345,4.2408,4.2461,4.2477,4.2444,4.2439,4.2462,4.247,4.2471,4.2472,4.2191,4.2433,4.2431,4.243,4.2429,4.2428,4.2025,4.2084,4.2115,4.2177,4.2204,4.2241,4.2296,4.2304,4.236,4.242,4.2406,4.2483,4.2514,4.2583,4.2605,4.2665,4.263,4.2662,4.267,4.2679,4.2689,4.2462,4.2674,4.2673,4.2673,4.2672,4.2672,0,4.2238,4.2256,4.2314,4.2369,4.2418,4.2382,4.2422,4.2466,4.2534,4.2566,4.2616,4.2694,4.2755,4.2768,4.2826,4.2872,4.2858,4.2888,4.2884,4.2889,4.2716,4.2691,4.2898,4.2898,4.2898,4.2898,4.2898,4.2898,4.2355,4.2453,4.2451,4.2562,4.2579,4.2654,4.268,4.2714,4.274,4.2829,4.288,4.2887,4.2912,4.2972,4.3027,4.3029,4.3052,4.3089,4.3085,4.2923,4.2901,4.2879,4.2856,4.3094,4.3095,4.3253,4.3255,4.3256]},{"header":{"parameterUnit":"m.s-1","parameterCategory":1,"la1":30.2991,"la2":30.254,"lo1":-89.0895,"lo2":-89.0444,"dy":0.0017,"dx":0.0017,"nx":28,"ny":28,"refTime":"2024-11-22T09:00:00:Z","depth":0,"parameterNumber":3,"parameterNumberName":"V-component_of_WINDS"},"data":[0,0,0,0,0,0,0,0,0,0,0,0,0,0,0,0,0,0,0,0,0,0,0,0,0,0,0,0,0,0,0,0,0,0,0,0,0,0,0,0,0,0,0,0,0,0,0,0,0,0,0,0,0,0,0,0,0,0,-3.5264,-3.5266,0,-3.5413,-3.5414,-3.5416,-3.5392,-3.539,-3.5387,-3.5385,-3.5538,-3.5544,-3.5551,0,0,0,0,0,0,0,0,0,0,0,0,0,-3.4961,-3.4967,-3.5264,-3.5266,-3.5268,-3.5412,-3.5414,-3.5416,-3.5393,-3.5389,-3.5386,-3.5383,-3.5536,-3.5544,-3.5551,0,0,0,0,0,0,0,0,0,0,0,0,0,-3.51,-3.4969,-3.5263,-3.5273,-3.5275,-3.5412,-3.5414,-3.5417,-3.5393,-3.5389,-3.5386,-3.5382,-3.5533,-3.5543,-3.5552,-3.5689,0,0,-3.5582,-3.5586,0,0,0,0,0,0,0,0,-3.5092,-3.5111,-3.527,-3.5273,-3.5276,-3.538,-3.5364,-3.5508,-3.5394,-3.5349,-3.5385,-3.538,-3.5489,-3.5502,-3.5538,-3.5696,-3.5703,-3.5583,-3.5589,-3.5593,-3.5596,0,0,0,0,0,0,0,-3.5082,-3.5104,-3.5323,-3.5272,-3.5276,-3.5271,-3.5286,-3.5391,-3.5438,-3.5352,-3.5351,-3.5369,-3.5489,-3.5529,-3.5542,-3.5705,-3.5583,-3.5591,-3.5597,-3.5601,-3.5984,-3.5988,0,0,0,0,0,0,-3.507,-3.5096,-3.5318,-3.5327,-3.5172,-3.5279,-3.5296,-3.535,-3.5437,-3.5447,-3.5372,-3.5367,-3.5514,-3.553,-3.5547,-3.5713,-3.5593,-3.5602,-3.5608,-3.598,-3.5985,-3.599,0,0,0,0,0,0,-3.5063,-3.509,-3.5312,-3.5212,-3.5239,-3.5288,-3.5349,-3.5355,-3.5394,-3.5452,-3.546,-3.5403,-3.5512,-3.5533,-3.5654,-3.5718,-3.5606,-3.5615,-3.5975,-3.5981,-3.5987,-3.6047,0,0,0,0,0,0,-3.5055,-3.5087,-3.5139,-3.5213,-3.5245,-3.5416,-3.5353,-3.5361,-3.5411,-3.5406,-3.5484,-3.5493,-3.551,-3.564,-3.5664,-3.573,-3.5623,-3.5969,-3.5978,-3.5985,-3.6039,-3.6054,-3.6067,0,0,0,0,0,-3.5044,-3.515,-3.5142,-3.5169,-3.5311,-3.542,-3.5438,-3.5456,-3.5416,-3.5469,-3.5506,-3.549,-3.5707,-3.5652,-3.5679,-3.5749,-3.5965,-3.5975,-3.5985,-3.6033,-3.6051,-3.6067,0,0,0,0,0,0,-3.5084,-3.516,-3.5152,-3.5285,-3.5346,-3.5416,-3.5483,-3.5475,-3.5549,-3.5542,-3.5561,-3.5578,-3.5701,-3.5737,-3.5674,-3.5886,-3.5831,-3.5846,-3.5858,-3.5876,-3.589,-3.5879,-3.5631,0,0,0,0,0,-3.5108,-3.519,-3.5252,-3.5364,-3.5395,-3.5434,-3.5482,-3.5491,-3.5555,-3.5581,-3.5626,-3.569,-3.5772,-3.5826,-3.5905,-3.6044,-3.6061,-3.6105,-3.6119,-3.6131,-3.6144,-3.6221,-3.6242,-3.6022,-3.6022,-3.6021,0,0,-3.5159,-3.5211,-3.5261,-3.5373,-3.5421,-3.5506,-3.5456,-3.5548,-3.5611,-3.5595,-3.5712,-3.5748,-3.582,-3.595,-3.601,-3.5984,-3.6209,-3.6143,-3.6152,-3.6159,-3.6233,-3.6254,-3.6273,-3.6028,-3.6027,-3.6026,0,0,-3.5295,-3.5342,-3.5441,-3.549,-3.5564,-3.5589,-3.5613,-3.5684,-3.5707,-3.5825,-3.5815,-3.5891,-3.6032,-3.6084,-3.6129,-3.6286,-3.6274,-3.6311,-3.6385,-3.646,-3.6477,-3.6493,-3.6549,-3.6569,-3.6324,-3.6324,-3.6324,0,-3.5349,-3.5476,-3.5493,-3.5586,-3.5636,-3.5624,-3.5725,-3.5772,-3.5868,-3.5903,-3.5872,-3.605,-3.6098,-3.6241,-3.6279,-3.6316,-3.6344,-3.6302,-3.6473,-3.6489,-3.6504,-3.6558,-3.6579,-3.6328,-3.6328,-3.6328,-3.6327,0,-3.554,-3.5628,-3.5699,-3.5792,-3.5849,-3.5946,-3.5977,-3.6034,-3.6037,-3.6066,-3.6187,-3.6244,-3.6334,-3.6369,-3.6373,-3.6513,-3.6495,-3.6469,-3.6413,-3.6528,-3.658,-3.6601,-3.6334,-3.6333,-3.6332,-3.6331,0,0,-3.5705,-3.5806,-3.5832,-3.5874,-3.5955,-3.6024,-3.612,-3.6208,-3.6257,-3.6323,-3.6405,-3.6525,-3.6502,-3.6553,-3.6563,-3.6629,-3.6751,-3.6595,-3.6597,-3.6622,-3.6909,-3.6929,-3.6953,-3.6743,-3.6747,-3.675,-3.6903,0,-3.585,-3.6019,-3.6037,-3.6188,-3.6271,-3.6261,-3.6345,-3.6404,-3.6434,-3.6509,-3.6541,-3.6627,-3.6589,-3.662,-3.6684,-3.6722,-3.6808,-3.6711,-3.682,-3.6824,-3.6803,-3.6979,-3.7,-3.7142,-3.6923,-3.6927,-3.6929,0,-3.6041,-3.6113,-3.6273,-3.6343,-3.6378,-3.6453,-3.6536,-3.6607,-3.6674,-3.6691,-3.6748,-3.675,-3.685,-3.6791,-3.6929,-3.6863,-3.6909,-3.6934,-3.694,-3.6951,-3.6884,-3.6996,-3.7187,-3.7209,-3.6961,-3.6959,-3.6956,0,-3.6146,-3.6283,-3.6397,-3.6433,-3.6517,-3.657,-3.6608,-3.6671,-3.6724,-3.6796,-3.683,-3.6914,-3.696,-3.7025,-3.7049,-3.7004,-3.7187,-3.7129,-3.7205,-3.7204,-3.7244,-3.7242,-3.7446,-3.7273,-3.7272,-3.7272,-3.7272,0,-3.6306,-3.6405,-3.6445,-3.6515,-3.6625,-3.6645,-3.6754,-3.6789,-3.6846,-3.6923,-3.692,-3.6992,-3.702,-3.7098,-3.7118,-3.723,-3.7251,-3.7268,-3.7272,-3.7269,-3.7266,-3.7299,-3.729,-3.7278,-3.7276,-3.7275,-3.7274,0,-3.6443,-3.6474,-3.6597,-3.6667,-3.6687,-3.6765,-3.6825,-3.6893,-3.6921,-3.7019,-3.7043,-3.7089,-3.718,-3.7211,-3.7321,-3.7334,-3.7465,-3.7461,-3.7443,-3.7444,-3.7518,-3.7511,-3.7751,-3.7784,-3.7588,-3.759,-3.7591,0,-3.6543,-3.6619,-3.6696,-3.6747,-3.6787,-3.6869,-3.6923,-3.6945,-3.7001,-3.7083,-3.7142,-3.7232,-3.7305,-3.7452,-3.7495,-3.758,-3.7578,-3.7656,-3.759,-3.7585,-3.758,-3.7575,-3.7583,-3.7668,-3.767,-3.7672,-3.7673,0,-3.6718,-3.673,-3.6806,-3.6889,-3.6952,-3.7018,-3.7082,-3.7125,-3.7157,-3.722,-3.7312,-3.7369,-3.7482,-3.7572,-3.7659,-3.7698,-3.7692,-3.7694,-3.7716,-3.7713,-3.77,-3.7709,-3.7477,-3.7688,-3.7687,-3.7686,-3.7685,-3.7684,-3.684,-3.6907,-3.6972,-3.7058,-3.7108,-3.7168,-3.7236,-3.7273,-3.735,-3.7443,-3.7452,-3.7553,-3.7619,-3.7734,-3.7778,-3.7858,-3.7836,-3.7867,-3.7876,-3.7883,-3.789,-3.7687,-3.7873,-3.7873,-3.7873,-3.7872,-3.7872,0,-3.7016,-3.7057,-3.7135,-3.7225,-3.7293,-3.728,-3.735,-3.7408,-3.7496,-3.7558,-3.763,-3.7737,-3.7825,-3.7875,-3.7963,-3.8017,-3.8017,-3.804,-3.8036,-3.8046,-3.7904,-3.7876,-3.8039,-3.8039,-3.8039,-3.8039,-3.8038,-3.8038,-3.7115,-3.7227,-3.7247,-3.7385,-3.7426,-3.7524,-3.7565,-3.7621,-3.767,-3.779,-3.7863,-3.7895,-3.7952,-3.8044,-3.8125,-3.8137,-3.817,-3.8196,-3.8206,-3.8073,-3.8055,-3.8039,-3.8013,-3.8202,-3.8203,-3.8342,-3.8343,-3.8344]}]]